Showing default

NUVIEW BRAVO, 62457

Orbit data source: Space-Track

NUVIEW BRAVO, 62457 is a UK payload satellite in GEO that was launched on Sun, 29 Dec 2024 UTC via an FALCON 9 launch vehicle from the Air Force Eastern Test Range (AFETR). Payload-class satellites include a variety of spacecraft equipped with specific instruments for various scientific and technological missions. These include communications satellites like Starlink; space stations such as the ISS; scientific satellites like the Hubble; Earth observation satellites from companies like Planet Labs, Umbra, and HawkEye 360; GPS; miniature CubeSats for education and research; and military/defense satellites.

Loading next visibility...
Identifier
62457, 2024-252D
Orbit
GEO
Country
Flag of UKUK
Related business
Manufacturer
Astranis
Mission
Operational Commercial Communications
Bus & Motor
MICROGEO, EP
Mass
400 kg wet, 400 kg dry
Launch date (UTC)
2024-12-29 (2 years ago)
Launch vehicle
FALCON 9
Launch site
Air Force Eastern Test Range (AFETR)
Object type
Payload
Rocket body
Debris
Shape & HBR
Box + 22 Pan, 5.0 m
Radar Cross Section
41.175 m²

Expand to show TLE details & history
Last TLE update: 11 hours ago

TLE from 11 hours ago
0 NUVIEW BRAVO
1 62457U 24252D   26195.47544994 -.00000222  00000-0  00000-0 0  9995
2 62457   0.0692 164.8470 0001482 342.5421 232.9992  1.00270733  4068
Epoch: 2026-07-14T11:24Z
TLE epoch observation values (Epoch: 2026-07-14T11:24:38.874Z)
Latitude
-0.04867°
Longitude
-83.1151°
Altitude
35,790.125 km
Speed
3.074 km/s
True Right ascension
01h 21m 34s
True Declination
0° 02' 55"
Sunlit
Object was in daylight at epoch
Visualization orbit readout
Latitude
Unknown
Longitude
Unknown
Altitude
Unknown
Speed
Unknown
Apparent Right ascension
Unknown
Apparent Declination
Unknown
Sunlit
N/A
Visualization observer readout
Local Sidereal Time
10:46:50
Azimuth
Unknown
Elevation
Unknown
Doppler factor
Unknown
Orbital elements
Apogee altitude
35,794.209 km
Perigee altitude
35,781.711 km
Semi-major axis
42,166.097 km
Eccentricity
0.00015
Inclination
0.0692°
RAAN
164.847°
Arg. of periapsis
342.5421°
True anomaly
232.98564°
Mean anomaly
232.9992°
Eccentric anomaly
232.99242°
Mean motion
0.25067 °/min
Orbital period
1,436.17 mins
BSTAR
0
Loading maneuver chart data...
Computing Atmospheric mass density...
Loading historical data...
Loading historical data...
Loading historical data...
Loading historical data...
Loading historical data...
Loading historical data...
Loading historical data...
Other satellites on launch #252 in the year 2024 (2024-12-29 UTC)

Documentation

Showing up to 5 results
|